Weather History for Hamilton Island, QU

Change the Weather History Date:

Tuesday, June 11, 2013

  Actual Average Record
Temperature  
Mean Temperature 71 °F -  
Max Temperature 74 °F - - ()
Min Temperature 68 °F - - ()
Cooling Degree Days 6    
Growing Degree Days 21 (Base 50)    
Moisture  
Dew Point 70 °F    
Average Humidity 95    
Maximum Humidity 100    
Minimum Humidity 83    
Precipitation  
Precipitation 0.01 in - - ()
Sea Level Pressure  
Sea Level Pressure 29.98 in    
Wind  
Wind Speed 16 mph ()    
Max Wind Speed 22 mph    
Max Gust Speed -    
T = Trace of Precipitation, MM = Missing Value Source: Averaged Metar Reports

Daily Weather History Graph

Daily Weather History Graph

Search for Another Location

Airport:

Trip Planner

Search our weather history database for the weather conditions in past years. The results will help you decide how hot, cold, wet, or windy it might be!

Date:

Astronomy

Jun. 11, 2013 Rise Set
Actual Time 6:36 AM AEST 5:31 PM AEST
Civil Twilight 6:12 AM AEST 5:55 PM AEST
Nautical Twilight 5:44 AM AEST 6:22 PM AEST
Astronomical Twilight 5:17 AM AEST 6:50 PM AEST
Moon 8:17 AM AEST (6/11) 7:43 PM AEST (6/11)
Length of Visible Light 11h 43m
Length of Day
10h 55m
Waxing Crescent, 5% of the Moon is Illuminated
Jun 11
Waxing Crescent
Jun 17
First Quarter
Jun 23
Full
Jun 30
Last Quarter
Jul 8
New

Hourly Weather History & Observations

Time (AEST) Temp. Dew Point Humidity Pressure Visibility Wind Dir Wind Speed Gust Speed Precip Events Conditions
12:00 AM 71 °F 69 °F 90% 30.02 in - SE 18.4 mph - -  
12:00 AM 69.8 °F 68.0 °F 94% 30.01 in - SE 18.4 mph - N/A   Unknown
12:30 AM 69.8 °F 69.8 °F 100% 30.01 in - SE 18.4 mph - N/A   Unknown
1:00 AM 69.8 °F 69.8 °F 100% 30.01 in - SE 17.3 mph - N/A   Unknown
1:30 AM 71.6 °F 69.8 °F 94% 30.01 in - ESE 18.4 mph - N/A   Unknown
2:00 AM 69.8 °F 68.0 °F 94% 29.98 in - ESE 19.6 mph - N/A   Unknown
2:30 AM 69.8 °F 68.0 °F 94% 29.98 in - ESE 18.4 mph - N/A   Unknown
3:00 AM 69.8 °F 69.8 °F 100% 29.98 in - SE 13.8 mph - N/A   Unknown
3:30 AM 69.8 °F 69.8 °F 100% 29.95 in - SE 19.6 mph - N/A   Unknown
4:00 AM 69.8 °F 68.0 °F 94% 29.95 in - ESE 21.9 mph - N/A   Unknown
4:30 AM 69.8 °F 68.0 °F 94% 29.95 in - ESE 21.9 mph - N/A   Unknown
5:00 AM 69.8 °F 69.8 °F 100% 29.95 in - ESE 17.3 mph - N/A   Unknown
5:30 AM 69.8 °F 69.8 °F 100% 29.95 in - SE 19.6 mph - N/A   Unknown
6:00 AM 70 °F 69 °F 97% 29.98 in - SE 15.0 mph - -  
6:00 AM 69.8 °F 69.8 °F 100% 29.98 in - SE 15.0 mph - N/A   Unknown
6:30 AM 71.6 °F 69.8 °F 94% 29.98 in - SE 17.3 mph - N/A   Unknown
7:00 AM 71.6 °F 69.8 °F 94% 29.98 in - ESE 20.7 mph - N/A   Unknown
7:30 AM 69.8 °F 69.8 °F 100% 29.98 in - ESE 12.7 mph - N/A   Unknown
8:00 AM 69.8 °F 69.8 °F 100% 30.01 in - SE 12.7 mph - N/A   Unknown
8:30 AM - - N/A% 30.01 in - ESE 16.1 mph - N/A   Unknown
9:00 AM 71 °F 71 °F 98% 30.02 in - SE 16.1 mph - -  
9:00 AM 71.6 °F 69.8 °F 94% 30.01 in - SE 16.1 mph - N/A   Unknown
9:30 AM 71.6 °F 71.6 °F 100% 30.01 in - SE 13.8 mph - N/A   Unknown
10:00 AM 69.8 °F 68.0 °F 94% 30.01 in - SE 19.6 mph - N/A   Unknown
10:30 AM 71.6 °F 71.6 °F 100% 30.01 in - SE 17.3 mph - N/A   Unknown
11:00 AM 73.4 °F 71.6 °F 94% 30.01 in - SE 18.4 mph - N/A   Unknown
11:30 AM 71.6 °F 69.8 °F 94% 30.01 in - ESE 18.4 mph - N/A   Unknown
12:00 PM 74 °F 71 °F 88% 29.99 in - SE 16.1 mph - -  
12:00 PM 73.4 °F 71.6 °F 94% 29.98 in - SE 16.1 mph - N/A   Unknown
12:30 PM 71.6 °F 69.8 °F 94% 29.98 in - SE 17.3 mph - N/A   Unknown
1:00 PM 73.4 °F 71.6 °F 94% 29.98 in - ESE 16.1 mph - N/A   Unknown
1:30 PM 71.6 °F 69.8 °F 94% 29.95 in - SSE 13.8 mph - N/A   Unknown
2:00 PM 73.4 °F 69.8 °F 88% 29.95 in - ESE 18.4 mph - N/A   Unknown
2:30 PM 73.4 °F 68.0 °F 83% 29.95 in - ESE 18.4 mph - N/A   Unknown
3:00 PM 71 °F 70 °F 96% 29.95 in - SSE 20.7 mph - -  
3:00 PM 71.6 °F 69.8 °F 94% 29.95 in - SSE 20.7 mph - N/A   Unknown
3:30 PM 71.6 °F 69.8 °F 94% 29.95 in - SSE 18.4 mph - N/A   Unknown
4:00 PM 71.6 °F 71.6 °F 100% 29.95 in - SE 18.4 mph - N/A   Unknown
4:30 PM 71.6 °F 69.8 °F 94% 29.95 in - SSE 13.8 mph - N/A   Unknown
5:00 PM 71.6 °F 69.8 °F 94% 29.98 in - SE 16.1 mph - N/A   Unknown
5:30 PM 71.6 °F 69.8 °F 94% 29.98 in - SE 16.1 mph - N/A   Unknown
6:00 PM 71 °F 70 °F 96% 29.97 in - SE 13.8 mph - -  
6:00 PM 71.6 °F 69.8 °F 94% 29.98 in - SE 13.8 mph - N/A   Unknown
6:30 PM 71.6 °F 69.8 °F 94% 29.98 in - SE 16.1 mph - N/A   Unknown
7:00 PM 71.6 °F 69.8 °F 94% 29.98 in - SE 15.0 mph - N/A   Unknown
7:30 PM 71.6 °F 69.8 °F 94% 29.98 in - SE 15.0 mph - N/A   Unknown
8:00 PM 71.6 °F 69.8 °F 94% 29.98 in - SE 16.1 mph - N/A   Unknown
8:30 PM 71.6 °F 69.8 °F 94% 29.98 in - ESE 15.0 mph - N/A   Unknown
9:00 PM 71 °F 69 °F 93% 29.99 in - SE 13.8 mph - -  
9:00 PM 71.6 °F 69.8 °F 94% 29.98 in - SE 13.8 mph - N/A   Unknown
9:30 PM 71.6 °F 69.8 °F 94% 29.98 in - ESE 11.5 mph - N/A   Unknown
10:00 PM 71.6 °F 69.8 °F 94% 29.98 in - SE 11.5 mph - N/A   Unknown
10:30 PM 71.6 °F 71.6 °F 100% 29.98 in - ESE 11.5 mph - N/A   Unknown
11:00 PM 71.6 °F 69.8 °F 94% 29.98 in - SE 11.5 mph - N/A   Unknown
11:30 PM 71.6 °F 69.8 °F 94% 29.98 in - SE 11.5 mph - N/A   Unknown